Wheaton, MN

2:58 PM CST on January 24, 2017 (GMT -0600)
Wheaton Municipal

Weather History for KETH - November, 2013

Change the Weather History Date:

Thursday, November 21, 2013

  Actual Average Record
Temperature  
Mean Temperature 16 °F -  
Max Temperature 23 °F 36 °F 60 °F (1960)
Min Temperature 10 °F 19 °F -4 °F (1978)
Degree Days  
Heating Degree Days 48    
Moisture  
Dew Point 13 °F    
Average Humidity 78    
Maximum Humidity 93    
Minimum Humidity 68    
Precipitation  
Precipitation 0.00 in - - ()
Sea Level Pressure  
Sea Level Pressure 30.46 in    
Wind  
Wind Speed 19 mph (NW)    
Max Wind Speed 26 mph    
Max Gust Speed 34 mph    
Visibility 10 miles    
Events Snow    
Averages and records for this station are not official NWS values.
T = Trace of Precipitation, MM = Missing Value Source: NWS Daily Summary

Daily Weather History Graph

Daily Weather History Graph

Search for Another Location

Airport or City:

Trip Planner

Search our weather history database for the weather conditions in past years. The results will help you decide how hot, cold, wet, or windy it might be!

Date:

Astronomy

Nov. 21, 2013 Rise Set
Actual Time 7:34 AM CST 4:49 PM CST
Civil Twilight 7:01 AM CST 5:22 PM CST
Nautical Twilight 6:25 AM CST 5:58 PM CST
Astronomical Twilight 5:49 AM CST 6:34 PM CST
Moon 8:29 PM CST (11/21) 10:40 AM CST (11/21)
Length of Visible Light 10h 20m
Length of Day
9h 14m
Waning Gibbous, 85% of the Moon is Illuminated
Nov 21
Waning Gibbous
Nov 25
Last Quarter
Dec 2
New
Dec 9
First Quarter
Dec 17
Full

Hourly Weather History & Observations

Time (CST) Temp. Windchill Dew Point Humidity Pressure Visibility Wind Dir Wind Speed Gust Speed Precip Events Conditions
12:14 AM 23.0 °F 8.0 °F 21.2 °F 93% 30.16 in 7.0 mi NW 20.7 mph 26.5 mph N/A   Overcast
12:35 AM 23.0 °F 8.7 °F 21.2 °F 93% 30.17 in 10.0 mi NW 18.4 mph 26.5 mph N/A   Overcast
12:54 AM 23.0 °F 7.6 °F 21.2 °F 93% 30.17 in 10.0 mi NW 21.9 mph 26.5 mph N/A   Overcast
1:14 AM 23.0 °F 6.9 °F 19.4 °F 86% 30.18 in 10.0 mi NW 24.2 mph 29.9 mph N/A   Overcast
1:34 AM 21.2 °F 5.6 °F 19.4 °F 93% 30.19 in 10.0 mi NW 20.7 mph 31.1 mph N/A   Overcast
1:54 AM 21.2 °F 4.9 °F 17.6 °F 86% 30.21 in 10.0 mi NW 23.0 mph 32.2 mph N/A   Overcast
2:14 AM 21.2 °F 4.2 °F 17.6 °F 86% 30.22 in 10.0 mi NW 25.3 mph 32.2 mph N/A   Overcast
2:34 AM 21.2 °F 6.8 °F 17.6 °F 86% 30.23 in 10.0 mi NW 17.3 mph 29.9 mph N/A   Overcast
2:54 AM 21.2 °F 4.9 °F 17.6 °F 86% 30.25 in 10.0 mi NW 23.0 mph 29.9 mph N/A   Overcast
3:14 AM 21.2 °F 5.2 °F 15.8 °F 80% 30.26 in 10.0 mi NW 21.9 mph 28.8 mph N/A   Overcast
3:34 AM 21.2 °F 4.9 °F 15.8 °F 80% 30.26 in 10.0 mi NW 23.0 mph 29.9 mph N/A   Overcast
3:54 AM 21.2 °F 6.4 °F 15.8 °F 80% 30.29 in 10.0 mi NW 18.4 mph 26.5 mph N/A   Overcast
4:14 AM 19.4 °F 2.5 °F 15.8 °F 86% 30.29 in 10.0 mi NW 23.0 mph 28.8 mph N/A Snow Light Snow
4:34 AM 19.4 °F 2.5 °F 15.8 °F 86% 30.29 in 10.0 mi NW 23.0 mph 27.6 mph N/A Snow Light Snow
4:54 AM 19.4 °F 3.2 °F 15.8 °F 86% 30.31 in 10.0 mi NW 20.7 mph 27.6 mph N/A Snow Light Snow
5:14 AM 19.4 °F 1.4 °F 15.8 °F 86% 30.33 in 2.5 mi NW 26.5 mph 32.2 mph N/A Snow Light Snow
5:34 AM 19.4 °F 4.1 °F 15.8 °F 86% 30.33 in 10.0 mi NW 18.4 mph 31.1 mph N/A Snow Light Snow
5:54 AM 19.4 °F 3.2 °F 14.0 °F 80% 30.34 in 10.0 mi NNW 20.7 mph 33.4 mph N/A Snow Light Snow
6:14 AM 19.4 °F 3.2 °F 14.0 °F 80% 30.36 in 10.0 mi NW 20.7 mph 27.6 mph N/A Snow Light Snow
6:34 AM 19.4 °F 3.2 °F 14.0 °F 80% 30.37 in 10.0 mi NNW 20.7 mph 31.1 mph N/A Snow Light Snow
6:54 AM 19.4 °F 3.6 °F 14.0 °F 80% 30.38 in 10.0 mi NW 19.6 mph 26.5 mph N/A Snow Light Snow
7:14 AM 19.4 °F 4.1 °F 14.0 °F 80% 30.39 in 10.0 mi NW 18.4 mph 28.8 mph N/A   Overcast
7:34 AM 19.4 °F 2.8 °F 14.0 °F 80% 30.40 in 10.0 mi NNW 21.9 mph 27.6 mph N/A Snow Light Snow
7:54 AM 19.4 °F 2.5 °F 12.2 °F 74% 30.41 in 10.0 mi NNW 23.0 mph 33.4 mph N/A Snow Light Snow
8:14 AM 19.4 °F 2.8 °F 12.2 °F 74% 30.42 in 10.0 mi NNW 21.9 mph 31.1 mph N/A Snow Light Snow
8:34 AM 19.4 °F 3.2 °F 12.2 °F 74% 30.43 in 10.0 mi NNW 20.7 mph 29.9 mph N/A Snow Light Snow
8:54 AM 19.4 °F 2.8 °F 12.2 °F 74% 30.45 in 10.0 mi NNW 21.9 mph 31.1 mph N/A Snow Light Snow
9:14 AM 19.4 °F 3.2 °F 14.0 °F 80% 30.46 in 10.0 mi NW 20.7 mph 25.3 mph N/A Snow Light Snow
9:34 AM 17.6 °F 1.7 °F 12.2 °F 79% 30.47 in 10.0 mi NNW 18.4 mph 29.9 mph N/A Snow Light Snow
9:54 AM 19.4 °F 3.6 °F 12.2 °F 74% 30.47 in 10.0 mi NNW 19.6 mph 29.9 mph N/A   Mostly Cloudy
10:14 AM 19.4 °F 2.1 °F 12.2 °F 74% 30.47 in 10.0 mi NW 24.2 mph 32.2 mph N/A   Scattered Clouds
10:34 AM 19.4 °F 2.5 °F 12.2 °F 74% 30.47 in 10.0 mi NNW 23.0 mph 29.9 mph N/A   Scattered Clouds
10:54 AM 19.4 °F 2.5 °F 12.2 °F 74% 30.47 in 10.0 mi NW 23.0 mph 32.2 mph N/A   Clear
11:14 AM 19.4 °F 3.2 °F 12.2 °F 74% 30.47 in 10.0 mi NW 20.7 mph 34.5 mph N/A   Clear
11:34 AM 19.4 °F 4.1 °F 12.2 °F 74% 30.48 in 10.0 mi NW 18.4 mph 29.9 mph N/A   Clear
11:54 AM 19.4 °F 3.6 °F 12.2 °F 74% 30.49 in 10.0 mi NW 19.6 mph 29.9 mph N/A   Clear
12:14 PM 19.4 °F 2.5 °F 12.2 °F 74% 30.49 in 10.0 mi NNW 23.0 mph 31.1 mph N/A   Clear
12:34 PM 19.4 °F 3.6 °F 12.2 °F 74% 30.50 in 10.0 mi NW 19.6 mph 29.9 mph N/A   Clear
12:54 PM 19.4 °F 2.1 °F 12.2 °F 74% 30.50 in 10.0 mi NW 24.2 mph 31.1 mph N/A   Clear
1:14 PM 19.4 °F 2.5 °F 12.2 °F 74% 30.51 in 10.0 mi NNW 23.0 mph 28.8 mph N/A   Clear
1:34 PM 19.4 °F 3.6 °F 12.2 °F 74% 30.51 in 10.0 mi NNW 19.6 mph 27.6 mph N/A   Clear
1:54 PM 19.4 °F 3.6 °F 10.4 °F 68% 30.52 in 10.0 mi NNW 19.6 mph 28.8 mph N/A   Clear
2:14 PM 19.4 °F 3.6 °F 12.2 °F 74% 30.52 in 10.0 mi NNW 19.6 mph 28.8 mph N/A   Scattered Clouds
2:34 PM 19.4 °F 3.2 °F 12.2 °F 74% 30.52 in 10.0 mi NW 20.7 mph 27.6 mph N/A   Scattered Clouds
2:54 PM 19.4 °F 4.1 °F 12.2 °F 74% 30.52 in 10.0 mi NNW 18.4 mph 24.2 mph N/A   Scattered Clouds
3:14 PM 19.4 °F 4.5 °F 10.4 °F 68% 30.53 in 10.0 mi NNW 17.3 mph 25.3 mph N/A   Clear
3:34 PM 19.4 °F 3.6 °F 10.4 °F 68% 30.54 in 10.0 mi NNW 19.6 mph - N/A   Clear
3:54 PM 19.4 °F 4.5 °F 10.4 °F 68% 30.55 in 10.0 mi NNW 17.3 mph 21.9 mph N/A   Clear
4:14 PM 17.6 °F 2.7 °F 10.4 °F 73% 30.57 in 10.0 mi NNW 16.1 mph 21.9 mph N/A   Clear
4:34 PM 17.6 °F 2.7 °F 10.4 °F 73% 30.57 in 10.0 mi NW 16.1 mph 21.9 mph N/A   Clear
4:54 PM 17.6 °F 2.2 °F 10.4 °F 73% 30.58 in 10.0 mi NNW 17.3 mph 23.0 mph N/A   Clear
5:14 PM 17.6 °F 3.2 °F 10.4 °F 73% 30.59 in 10.0 mi NW 15.0 mph 19.6 mph N/A   Clear
5:34 PM 17.6 °F 4.3 °F 10.4 °F 73% 30.60 in 10.0 mi NNW 12.7 mph 20.7 mph N/A   Clear
5:54 PM 17.6 °F 3.2 °F 10.4 °F 73% 30.60 in 10.0 mi NW 15.0 mph 19.6 mph N/A   Clear
6:14 PM 17.6 °F 4.3 °F 10.4 °F 73% 30.61 in 10.0 mi NW 12.7 mph - N/A   Clear
6:34 PM 17.6 °F 1.3 °F 10.4 °F 73% 30.61 in 10.0 mi NW 19.6 mph - N/A   Clear
6:54 PM 17.6 °F 3.7 °F 10.4 °F 73% 30.61 in 10.0 mi NW 13.8 mph 23.0 mph N/A   Clear
7:14 PM 17.6 °F 1.7 °F 10.4 °F 73% 30.62 in 10.0 mi NW 18.4 mph 23.0 mph N/A   Clear
7:34 PM 17.6 °F 3.2 °F 8.6 °F 68% 30.62 in 10.0 mi NW 15.0 mph 24.2 mph N/A   Clear
7:54 PM 17.6 °F 3.2 °F 10.4 °F 73% 30.62 in 10.0 mi NW 15.0 mph - N/A   Clear
8:14 PM 15.8 °F 0.9 °F 8.6 °F 73% 30.63 in 10.0 mi NW 15.0 mph 20.7 mph N/A   Clear
8:34 PM 15.8 °F 4.2 °F 10.4 °F 79% 30.63 in 10.0 mi NW 9.2 mph - N/A   Clear
8:54 PM 15.8 °F 2.1 °F 8.6 °F 73% 30.64 in 10.0 mi NW 12.7 mph - N/A   Clear
9:14 PM 14.0 °F 2.0 °F 8.6 °F 79% 30.64 in 10.0 mi NW 9.2 mph - N/A   Clear
9:34 PM 14.0 °F 2.9 °F 8.6 °F 79% 30.64 in 10.0 mi WNW 8.1 mph - N/A   Clear
9:54 PM 14.0 °F 2.0 °F 8.6 °F 79% 30.65 in 10.0 mi WNW 9.2 mph - N/A   Clear
10:14 PM 12.2 °F 0.7 °F 8.6 °F 85% 30.65 in 10.0 mi WNW 8.1 mph - N/A   Clear
10:34 PM 12.2 °F 2.9 °F 8.6 °F 85% 30.64 in 10.0 mi WNW 5.8 mph - N/A   Clear
10:54 PM 12.2 °F 1.7 °F 6.8 °F 79% 30.63 in 10.0 mi WNW 6.9 mph - N/A   Clear
11:14 PM 10.4 °F 2.2 °F 6.8 °F 85% 30.63 in 10.0 mi WNW 4.6 mph - N/A   Clear
11:34 PM 10.4 °F -0.4 °F 6.8 °F 85% 30.64 in 10.0 mi WNW 6.9 mph - N/A   Clear
11:54 PM 10.4 °F 2.2 °F 6.8 °F 85% 30.63 in 10.0 mi WNW 4.6 mph - N/A   Clear